Hourly Data Report for September 06, 2017

TORONTO CITY
ONTARIO

43°40'00.000" N
79°24'00.000" W
112.50 m
6158355
71508
XTO

Download Data

Hourly Data (September 2017)
Hourly Data Report for September 6, 2017
TIME
LST
Temp Definition
°C
Dew Point Definition
°C
Rel Hum Definition
%
Precip. Amount Definition
mm

Wind Dir Definition
10's deg

Wind Spd Definition
km/h
Visibility Definition
km
Stn Press Definition
kPa
Hmdx Definition


Wind Chill Definition


Weather Definition


00:00 14.0 10.9 82 0.0 LegendMM LegendMM   99.65     LegendNANA
01:00 14.5 10.7 78 0.0 LegendMM LegendMM   99.64     LegendNANA
02:00 14.4 11.1 81 0.0 LegendMM LegendMM   99.65     LegendNANA
03:00 15.0 10.8 76 0.0 LegendMM LegendMM   99.67     LegendNANA
04:00 13.5 10.6 82 0.0 LegendMM LegendMM   99.69     LegendNANA
05:00 12.6 10.3 86 0.0 LegendMM LegendMM   99.73     LegendNANA
06:00 13.3 10.5 83 0.0 LegendMM LegendMM   99.75     LegendNANA
07:00 14.0 10.7 80 0.0 LegendMM LegendMM   99.80     LegendNANA
08:00 15.6 11.2 75 0.0 LegendMM LegendMM   99.82     LegendNANA
09:00 16.7 11.9 73 0.0 LegendMM LegendMM   99.84     LegendNANA
10:00 18.0 10.0 60 0.0 LegendMM LegendMM   99.86     LegendNANA
11:00 19.8 9.9 53 0.0 LegendMM LegendMM   99.82     LegendNANA
12:00 19.9 8.5 48 0.0 LegendMM LegendMM   99.84     LegendNANA
13:00 20.2 8.7 48 0.0 LegendMM LegendMM   99.82     LegendNANA
14:00 20.1 9.6 51 0.0 LegendMM LegendMM   99.79     LegendNANA
15:00 20.7 7.3 42 0.0 LegendMM LegendMM   99.78     LegendNANA
16:00 20.1 7.9 45 0.0 LegendMM LegendMM   99.75     LegendNANA
17:00 19.7 8.1 47 0.0 LegendMM LegendMM   99.75     LegendNANA
18:00 19.0 10.6 58 0.0 LegendMM LegendMM   99.77     LegendNANA
19:00 18.8 11.0 61 0.0 LegendMM LegendMM   99.78     LegendNANA
20:00 18.0 9.6 58 0.0 LegendMM LegendMM   99.80     LegendNANA
21:00 17.3 9.8 61 0.0 LegendMM LegendMM   99.78     LegendNANA
22:00 16.1 10.0 67 0.0 LegendMM LegendMM   99.77     LegendNANA
23:00 15.3 9.3 67 0.0 LegendMM LegendMM   99.78     LegendNANA

Notes on Data Quality.

Legend

  • E = Estimated
  • M = Missing
  • NA = Not Available*
  • [empty] = Indicates an unobserved value
Date modified: